Weather in Guardamar del Segura

Spain     38°05′21″N   0°39′15″E
temp.,
°C
wind,
m/s
gust,
m/s
humid.,
%
clouds,
%
prec.,
mm/h
press.,
hPa
HPBL,
m
9 may, sun
sun923:00+18ne3375100 0.0 101378
02:00+17nw227788 0.0 101222
05:00+18w2261100 0.0 100912
08:00+20sse3351100 0.0 101046
11:00+22s7960100 0.0 1009510
14:00+26ssw913457 0.0 10081070
17:00+27ssw812394 0.0 10051240
20:00+23s712560 0.0 1004432
10 may, mon
mon1023:00+22nnw91347100 0.0 1008398
02:00+18ene116997 0.0 101016
05:00+19sse3369100 0.2 101073
08:00+17nne1273100 1.1 1011159
11:00+17nne226778 0.8 1012504
14:00+18ene336295 1.2 1011523
17:00+22se34554 0.1 10091072
20:00+21n455410 0.3 1009511
11 may, tue
tue1123:00+18nw5115565 0.7 1012328
02:00+17wnw8154999 0.7 1013806
05:00+16wnw7135032 0.0 1014961
08:00+16wnw712500 0.0 10161054
11:00+19wnw912340 0.0 10181682
14:00+21wnw911265 0.0 10191841
17:00+24wnw710230 0.0 10172177
20:00+21ssw77380 0.0 1017528
12 may, wed
wed1223:00+17sw610620 0.0 1020274
02:00+16wsw34590 0.0 101967
05:00+16w22550 0.0 101824
08:00+17wsw11530 0.0 101823
11:00+21ssw23405 0.0 1018813
14:00+23ssw35350 0.0 10161618
17:00+23s674391 0.0 1014952
20:00+23sw683936 0.0 1015483
13 may, thu
thu1323:00+19nnw48454 0.0 1017221
02:00+18nw225151 0.0 101618
05:00+17nnw335263 0.0 101635
08:00+17w24528 0.0 1016139
11:00+21w35405 0.0 1016993
14:00+23s55418 0.0 10141542
17:00+23s985097 0.0 1011811
20:00+20s786740 0.0 1011490